SCP
0 0 0 0 0 0 0 0 0 0 0 0 0 0 0 0 0 1 0 1 1 1 0 0 0 0 0 0 0 0 0 0 0 0 0 0 0 1 1 1 1 1 1
0 0 0 0 0 0 0 0 0 0 0 0 0 0 0 0 0 0 0 0 1 1 1 1 0 0 0 0 0 0 0 0 0 0 1 1 1 1 1 1 1 1 1
0 0 0 0 0 0 0 0 0 0 0 0 0 0 0 0 0 0 0 0 0 1 1 1 1 1 1 1 0 1 1 1 1 1 1 1 1 1 1 2 2 2 2
0 0 0 0 0 0 0 0 0 0 0 0 0 0 0 0 0 0 0 0 0 0 0 0 0 1 0 0 0 1 1 2 2 1 1 1 1 1 1 1 2 2 2
0 0 0 0 0 0 0 0 0 0 0 0 0 0 0 0 0 0 0 0 0 0 0 0 0 0 0 0 0 1 1 1 2 2 2 1 1 1 1 1 1 2 2
0 0 0 0 0 0 0 0 0 0 0 0 0 0 0 0 0 0 0 0 0 0 0 0 0 0 0 0 0 0 1 1 1 2 1 1 1 1 1 1 0 1 1
0 0 0 0 0 0 0 0 0 0 0 0 0 0 0 0 0 0 0 0 0 0 0 0 0 0 0 -0 0 0 0 1 1 1 1 1 1 1 1 1 1 1 1
0 0 0 0 0 0 0 0 0 0 0 0 0 0 0 0 0 0 0 0 0 0 -0 -0 -0 -0 0 0 0 0 0 0 1 1 1 1 1 1 1 1 1 1 1
0 0 -0 -0 0 0 0 0 0 0 0 0 0 0 0 0 0 0 0 0 0 -0 -0 -0 -0 0 0 0 -0 0 0 0 0 1 1 1 1 1 1 1 1 1 1
0 0 0 0 -0 -0 0 0 0 0 0 0 0 0 0 0 0 0 0 0 -0 -0 -0 0 -0 -0 0 0 -0 -0 0 0 0 0 1 1 1 1 1 1 1 1 1
0 0 0 -0 0 0 0 0 0 0 0 0 0 0 0 0 0 0 0 -0 0 -0 0 0 0 0 0 0 0 -0 0 0 0 0 0 1 1 1 1 1 1 1 0
0 0 -0 -0 -0 0 -0 0 0 0 0 0 0 0 0 0 0 0 0 0 0 0 0 -0 0 0 0 0 0 0 0 -0 0 0 0 0 0 1 1 1 0 0 0
0 0 -0 -0 -0 -0 0 0 0 0 0 0 0 0 0 0 0 0 0 0 0 0 0 0 0 0 0 0 0 0 0 0 0 -0 0 0 0 0 0 1 0 0 0
0 0 0 0 -0 -0 -0 0 0 0 0 0 0 0 0 0 -0 -0 0 0 0 0 0 0 0 0 0 0 0 0 0 0 -0 0 0 0 0 0 0 0 0 0 0
0 0 0 -0 0 -0 -0 0 0 0 0 0 0 0 0 0 -0 0 -0 0 0 -0 -0 0 0 0 -0 -0 -0 0 -0 -0 0 0 0 0 0 0 0 0 0 0 0
0 0 0 -0 -0 0 0 0 0 0 0 0 0 0 0 0 0 0 0 0 0 0 -0 0 0 0 -0 -0 -0 -0 -0 -0 0 0 0 0 0 0 0 0 0 0 0
0 0 0 0 0 0 0 0 0 0 0 0 0 0 0 0 0 0 0 0 0 0 -0 -0 -0 -0 -0 -0 0 -0 0 0 0 0 0 0 0 0 0 0 0 0 0
0 0 0 0 0 0 0 0 0 0 0 -0 0 0 0 0 0 0 0 0 0 0 0 -0 -0 -0 -0 -0 -0 -0 -0 0 0 0 0 0 0 0 0 0 0 0 0
0 0 0 0 0 0 0 0 0 0 0 0 0 0 0 0 0 0 0 0 0 0 0 -0 -0 -0 -0 -0 -0 -0 0 0 0 0 0 0 0 -0 -0 0 0 0 0
0 0 0 0 0 0 0 0 0 0 0 0 0 0 0 0 0 0 0 0 0 0 0 -0 -0 -0 -0 -0 -0 -0 -0 -0 -0 -0 0 0 -0 -0 0 0 0 0 0
0 0 0 0 0 0 0 0 0 0 0 0 0 0 0 0 -0 0 0 0 0 -0 -0 -0 -0 -0 -0 -0 -0 -0 -0 -0 -0 0 -0 -0 -0 -0 -0 -0 0 0 0
0 0 0 0 0 0 0 0 0 0 0 0 0 0 0 0 0 0 -0 -0 -0 -0 -0 -0 -0 -0 -0 -0 -0 -0 -0 0 -0 0 -0 -0 -0 -0 -0 -0 0 0 0
0 0 0 0 0 0 0 0 0 0 0 0 0 0 0 0 0 0 0 -0 -0 -0 0 -0 -0 -0 -0 -0 -0 -0 0 0 0 0 0 -0 0 0 0 0 0 0 0
0 0 0 0 0 0 0 0 0 0 0 0 0 0 0 0 0 0 0 0 0 0 0 0 0 0 0 0 0 0 0 0 0 0 0 0 0 0 0 0 0 0 0
-0 0 0 0 0 0 0 0 0 0 0 0 0 0 0 0 0 0 0 0 0 0 0 0 0 0 0 0 0 0 0 0 0 0 0 0 0 0 0 0 0 0 0
0 0 0 0 0 0 0 0 0 0 0 0 0 0 0 0 0 0 0 0 0 0 0 0 0 0 0 0 0 0 0 0 0 0 0 0 0 0 0 0 0 0 0
Wind_Speed_500mb
24 21 13 13 13 10 11 12 12 12 16 10 13 17 16 18 22 26 27 22 19 18 19 21 19 20 22 24 26 27 26 27 27 28 29 29 29 29 29 27 25 24 18
13 16 16 13 13 13 12 11 11 12 12 18 20 18 12 16 17 20 22 25 24 23 24 24 23 25 26 27 27 28 30 31 32 32 33 33 32 31 29 28 26 25 24
12 7 10 11 14 10 12 11 5 9 14 16 18 20 22 20 16 17 17 21 25 26 26 25 27 27 27 28 29 32 36 37 38 37 36 35 34 34 34 31 28 26 21
9 17 15 10 8 9 8 7 8 9 10 13 16 19 19 21 20 17 17 18 19 21 23 24 24 25 25 27 31 34 36 38 40 42 42 39 38 36 33 29 29 25 18
10 7 9 9 9 12 10 10 10 10 8 11 15 18 20 20 17 15 16 17 17 17 19 20 21 21 25 30 33 34 34 35 38 42 47 48 46 41 35 30 30 25 15
8 10 10 6 9 11 10 7 6 6 10 11 13 15 17 16 13 9 12 14 16 15 14 15 17 19 24 30 34 36 37 37 37 42 46 52 54 45 41 37 29 23 26
7 3 6 8 9 9 3 5 6 9 9 11 13 7 13 14 12 9 8 10 9 12 13 14 16 19 22 24 28 34 36 40 39 40 45 50 55 52 46 43 37 28 23
7 5 8 4 4 4 6 4 4 9 12 16 14 13 13 9 11 7 5 5 7 12 17 18 18 18 21 23 26 30 40 39 39 39 42 47 50 53 49 46 39 30 21
9 7 9 9 6 4 3 4 5 6 13 13 13 11 8 9 14 12 6 3 1 12 12 11 10 11 16 20 24 33 40 42 39 35 39 44 46 47 50 50 45 33 28
8 9 8 10 8 3 6 5 1 4 12 13 11 12 11 16 11 8 9 7 3 8 5 3 5 8 11 17 24 33 39 42 40 34 36 41 43 43 45 47 49 41 33
9 8 6 10 11 10 10 9 6 3 3 11 13 11 13 17 18 16 13 11 5 1 3 6 8 9 13 15 23 33 38 41 38 32 33 38 39 39 41 42 42 46 40
14 13 10 8 17 12 14 14 11 9 3 1 5 10 12 15 19 19 17 15 9 9 12 10 9 13 13 12 20 30 38 43 36 33 34 38 37 38 35 39 39 38 42
9 10 13 8 11 13 15 17 20 14 12 9 7 5 6 9 11 15 16 14 13 15 13 13 10 12 11 8 21 32 38 44 36 32 33 34 37 42 39 32 36 35 35
9 8 8 6 10 11 15 13 16 19 20 19 17 13 12 9 9 10 12 14 12 9 12 12 14 7 3 16 29 35 41 44 38 30 31 33 34 44 40 27 31 32 34
15 9 12 13 11 10 14 21 20 21 22 20 21 20 19 18 16 14 13 13 13 11 12 7 7 12 19 23 31 38 43 42 32 28 33 34 36 46 39 25 26 27 30
17 19 15 19 19 19 18 19 21 20 20 19 18 20 20 21 22 21 19 17 17 17 17 22 23 25 28 31 34 36 37 38 32 26 27 34 40 47 42 28 23 25 27
19 19 14 15 14 15 14 18 20 22 21 17 16 17 19 21 22 20 20 21 21 22 26 31 35 35 37 40 40 40 43 38 29 26 29 35 42 44 40 36 25 24 24
29 26 23 22 17 15 15 13 15 19 18 18 17 18 15 18 18 19 19 21 22 24 28 34 38 40 43 47 50 41 35 32 33 33 37 40 39 35 31 31 28 21 24
31 32 32 28 20 16 14 18 20 19 20 19 19 20 19 20 15 14 17 18 19 20 23 30 34 35 38 35 33 28 30 31 30 34 32 32 28 27 25 30 32 28 28
28 27 31 29 28 26 25 27 27 27 26 27 26 26 23 21 23 21 22 22 25 24 27 34 34 35 35 33 35 40 39 36 33 31 27 30 29 25 27 34 39 36 31
32 31 33 34 32 33 30 27 30 33 32 31 31 28 26 24 25 23 25 25 27 32 36 38 37 41 41 39 39 43 46 48 46 46 43 41 35 34 35 38 37 38 27
33 34 34 34 34 35 33 31 29 31 30 32 32 30 30 30 27 28 30 29 30 34 35 38 42 43 42 43 45 50 53 56 65 53 61 61 51 47 42 37 30 33 23
19 24 31 34 31 37 38 38 38 35 34 34 35 35 34 33 35 38 38 36 38 39 40 41 45 46 52 52 54 56 57 60 63 61 65 67 56 51 43 31 27 27 21
23 26 23 24 25 25 31 37 39 36 35 37 37 40 42 42 47 48 49 48 48 47 47 49 53 55 56 56 60 63 66 65 64 58 50 67 57 51 47 39 32 25 21
40 34 30 28 27 27 30 39 37 37 33 37 38 37 41 45 50 49 49 54 54 52 52 53 57 59 60 58 55 58 60 60 64 60 58 63 60 63 58 54 43 30 31
18 23 23 25 28 28 25 29 27 25 28 21 28 31 36 41 45 46 43 47 53 55 56 58 58 58 58 57 53 55 54 55 55 64 59 54 57 58 64 62 54 52 48
Wind_Direction_500mb
123 118 119 134 136 131 115 105 89 77 63 64 90 88 79 66 53 44 42 47 58 64 63 62 61 61 61 58 54 47 38 29 17 6 1 356 350 345 344 339 336 328 315
113 123 118 117 157 138 118 106 99 62 74 71 71 74 72 45 46 36 41 52 58 64 68 67 65 63 62 56 48 39 29 20 11 4 357 352 348 343 339 335 335 317 313
112 144 124 118 127 145 127 110 107 27 45 51 43 44 48 44 41 39 47 65 68 66 69 71 71 68 60 52 42 35 28 20 12 6 1 357 351 347 343 338 330 327 320
130 114 104 113 122 145 125 95 44 39 48 26 24 27 31 31 32 56 67 69 69 71 73 74 73 70 61 50 40 32 26 21 18 16 12 4 359 353 350 349 345 343 320
139 131 144 112 114 138 118 89 64 71 33 6 360 360 3 9 24 59 73 78 75 73 75 77 73 62 55 48 40 30 23 19 18 18 19 14 9 5 3 1 2 1 5
116 133 122 91 125 139 130 81 91 41 29 25 3 358 360 23 58 73 84 80 79 73 68 72 66 57 53 48 40 33 25 17 16 18 17 16 15 13 12 10 18 26 25
162 174 160 134 116 128 140 85 75 35 35 357 1 32 23 22 40 40 98 103 88 72 68 73 74 61 51 42 31 27 21 17 15 15 15 15 17 17 17 15 22 30 36
205 193 190 186 157 106 114 107 45 47 38 26 28 17 10 14 6 11 41 79 87 100 97 84 81 60 48 34 28 20 17 14 12 12 13 14 18 19 19 21 26 29 43
176 212 201 221 198 197 174 150 33 50 40 37 47 34 5 5 11 17 14 26 155 128 103 85 55 34 33 30 22 24 21 18 12 13 15 12 15 17 20 22 26 36 32
219 246 205 208 203 211 201 206 263 71 57 54 46 50 47 34 13 1 3 346 135 158 135 48 30 4 9 23 24 25 20 16 17 18 14 12 11 11 16 19 24 29 29
216 182 219 219 240 247 219 209 229 155 88 62 58 75 54 50 40 42 14 351 18 109 16 14 353 345 344 7 14 19 13 11 10 9 7 8 8 5 10 14 19 24 26
231 225 236 262 240 243 222 219 224 229 240 51 57 56 54 49 41 40 35 28 16 352 329 341 345 356 340 350 2 7 5 5 6 7 2 357 2 2 1 8 13 18 22
258 243 245 267 221 232 229 228 226 232 254 274 273 328 11 20 24 27 25 22 20 14 359 1 316 301 332 341 354 353 354 354 350 350 360 6 7 6 357 1 6 9 13
262 258 238 250 229 237 237 233 225 234 250 263 265 276 296 313 330 338 351 7 3 9 50 34 28 48 309 338 345 344 343 344 349 335 343 348 356 355 355 353 0 1 6
238 247 236 229 248 251 251 245 253 239 252 261 256 264 274 282 288 294 304 318 335 338 327 339 333 331 336 335 335 337 339 342 340 329 330 332 339 345 350 339 348 352 358
248 241 269 239 248 264 263 258 236 240 253 251 252 263 274 272 273 275 274 283 295 303 306 305 307 309 317 320 325 331 337 336 327 322 324 328 334 340 347 345 331 338 346
254 253 263 280 289 270 264 249 245 249 246 248 252 267 276 278 269 265 264 267 275 286 293 298 303 308 311 312 315 316 316 319 309 312 321 324 328 335 344 355 330 324 333
263 262 267 272 273 276 253 262 256 254 252 251 247 260 272 283 269 257 264 271 281 286 291 293 296 301 307 312 315 316 315 309 302 305 310 314 322 331 341 349 350 340 326
268 260 263 269 265 261 274 272 263 258 263 264 263 266 271 268 272 276 273 276 283 288 296 301 305 309 313 320 322 327 328 322 310 308 314 319 325 331 330 330 320 312 313
263 264 263 269 269 270 272 271 270 261 264 266 271 274 277 268 270 270 273 281 284 284 295 300 302 308 313 315 321 325 323 324 323 322 327 321 322 321 323 325 318 306 294
261 265 263 264 266 267 272 273 267 261 264 262 266 272 268 268 271 271 274 275 278 284 288 296 298 304 306 309 319 322 321 321 317 317 319 316 320 319 323 321 313 319 286
259 261 265 264 267 267 263 260 266 263 266 265 268 271 271 265 264 267 277 280 280 285 286 290 293 297 301 306 312 314 316 319 318 317 318 315 319 319 326 317 304 318 299
263 270 269 261 259 263 263 261 262 265 270 273 277 276 273 268 270 274 273 275 273 274 277 285 287 291 297 301 304 304 306 305 304 309 313 310 321 321 325 322 300 306 306
304 293 299 311 319 278 261 262 262 265 269 270 272 274 275 275 271 274 274 275 274 274 275 278 280 283 286 291 295 299 299 299 300 304 310 309 321 324 322 321 318 287 287
281 291 276 303 305 283 278 261 259 256 260 266 266 269 268 271 274 273 274 276 276 279 276 276 279 282 284 285 288 292 295 299 300 302 304 307 313 315 315 314 320 312 281
257 254 258 280 281 284 269 277 265 255 258 262 275 285 293 291 282 280 279 280 278 279 279 280 279 278 280 281 282 283 289 293 297 299 303 305 310 313 311 310 311 311 305
Wind_Speed_850mb
24 21 13 13 13 10 11 12 12 12 16 10 13 17 16 18 22 26 27 22 19 18 19 21 19 20 22 24 26 27 26 27 27 28 29 29 29 29 29 27 25 24 18
13 16 16 13 13 13 12 11 11 12 12 18 20 18 12 16 17 20 22 25 24 23 24 24 23 25 26 27 27 28 30 31 32 32 33 33 32 31 29 28 26 25 24
12 7 10 11 14 10 12 11 5 9 14 16 18 20 22 20 16 17 17 21 25 26 26 25 27 27 27 28 29 32 36 37 38 37 36 35 34 34 34 31 28 26 21
9 17 15 10 8 9 8 7 8 9 10 13 16 19 19 21 20 17 17 18 19 21 23 24 24 25 25 27 31 34 36 38 40 42 42 39 38 36 33 29 29 25 18
10 7 9 9 9 12 10 10 10 10 8 11 15 18 20 20 17 15 16 17 17 17 19 20 21 21 25 30 33 34 34 35 38 42 47 48 46 41 35 30 30 25 15
8 10 10 6 9 11 10 7 6 6 10 11 13 15 17 16 13 9 12 14 16 15 14 15 17 19 24 30 34 36 37 37 37 42 46 52 54 45 41 37 29 23 26
7 3 6 8 9 9 3 5 6 9 9 11 13 7 13 14 12 9 8 10 9 12 13 14 16 19 22 24 28 34 36 40 39 40 45 50 55 52 46 43 37 28 23
7 5 8 4 4 4 6 4 4 9 12 16 14 13 13 9 11 7 5 5 7 12 17 18 18 18 21 23 26 30 40 39 39 39 42 47 50 53 49 46 39 30 21
9 7 9 9 6 4 3 4 5 6 13 13 13 11 8 9 14 12 6 3 1 12 12 11 10 11 16 20 24 33 40 42 39 35 39 44 46 47 50 50 45 33 28
8 9 8 10 8 3 6 5 1 4 12 13 11 12 11 16 11 8 9 7 3 8 5 3 5 8 11 17 24 33 39 42 40 34 36 41 43 43 45 47 49 41 33
9 8 6 10 11 10 10 9 6 3 3 11 13 11 13 17 18 16 13 11 5 1 3 6 8 9 13 15 23 33 38 41 38 32 33 38 39 39 41 42 42 46 40
14 13 10 8 17 12 14 14 11 9 3 1 5 10 12 15 19 19 17 15 9 9 12 10 9 13 13 12 20 30 38 43 36 33 34 38 37 38 35 39 39 38 42
9 10 13 8 11 13 15 17 20 14 12 9 7 5 6 9 11 15 16 14 13 15 13 13 10 12 11 8 21 32 38 44 36 32 33 34 37 42 39 32 36 35 35
9 8 8 6 10 11 15 13 16 19 20 19 17 13 12 9 9 10 12 14 12 9 12 12 14 7 3 16 29 35 41 44 38 30 31 33 34 44 40 27 31 32 34
15 9 12 13 11 10 14 21 20 21 22 20 21 20 19 18 16 14 13 13 13 11 12 7 7 12 19 23 31 38 43 42 32 28 33 34 36 46 39 25 26 27 30
17 19 15 19 19 19 18 19 21 20 20 19 18 20 20 21 22 21 19 17 17 17 17 22 23 25 28 31 34 36 37 38 32 26 27 34 40 47 42 28 23 25 27
19 19 14 15 14 15 14 18 20 22 21 17 16 17 19 21 22 20 20 21 21 22 26 31 35 35 37 40 40 40 43 38 29 26 29 35 42 44 40 36 25 24 24
29 26 23 22 17 15 15 13 15 19 18 18 17 18 15 18 18 19 19 21 22 24 28 34 38 40 43 47 50 41 35 32 33 33 37 40 39 35 31 31 28 21 24
31 32 32 28 20 16 14 18 20 19 20 19 19 20 19 20 15 14 17 18 19 20 23 30 34 35 38 35 33 28 30 31 30 34 32 32 28 27 25 30 32 28 28
28 27 31 29 28 26 25 27 27 27 26 27 26 26 23 21 23 21 22 22 25 24 27 34 34 35 35 33 35 40 39 36 33 31 27 30 29 25 27 34 39 36 31
32 31 33 34 32 33 30 27 30 33 32 31 31 28 26 24 25 23 25 25 27 32 36 38 37 41 41 39 39 43 46 48 46 46 43 41 35 34 35 38 37 38 27
33 34 34 34 34 35 33 31 29 31 30 32 32 30 30 30 27 28 30 29 30 34 35 38 42 43 42 43 45 50 53 56 65 53 61 61 51 47 42 37 30 33 23
19 24 31 34 31 37 38 38 38 35 34 34 35 35 34 33 35 38 38 36 38 39 40 41 45 46 52 52 54 56 57 60 63 61 65 67 56 51 43 31 27 27 21
23 26 23 24 25 25 31 37 39 36 35 37 37 40 42 42 47 48 49 48 48 47 47 49 53 55 56 56 60 63 66 65 64 58 50 67 57 51 47 39 32 25 21
40 34 30 28 27 27 30 39 37 37 33 37 38 37 41 45 50 49 49 54 54 52 52 53 57 59 60 58 55 58 60 60 64 60 58 63 60 63 58 54 43 30 31
18 23 23 25 28 28 25 29 27 25 28 21 28 31 36 41 45 46 43 47 53 55 56 58 58 58 58 57 53 55 54 55 55 64 59 54 57 58 64 62 54 52 48
Wind_Direction_850mb
123 118 119 134 136 131 115 105 89 77 63 64 90 88 79 66 53 44 42 47 58 64 63 62 61 61 61 58 54 47 38 29 17 6 1 356 350 345 344 339 336 328 315
113 123 118 117 157 138 118 106 99 62 74 71 71 74 72 45 46 36 41 52 58 64 68 67 65 63 62 56 48 39 29 20 11 4 357 352 348 343 339 335 335 317 313
112 144 124 118 127 145 127 110 107 27 45 51 43 44 48 44 41 39 47 65 68 66 69 71 71 68 60 52 42 35 28 20 12 6 1 357 351 347 343 338 330 327 320
130 114 104 113 122 145 125 95 44 39 48 26 24 27 31 31 32 56 67 69 69 71 73 74 73 70 61 50 40 32 26 21 18 16 12 4 359 353 350 349 345 343 320
139 131 144 112 114 138 118 89 64 71 33 6 360 360 3 9 24 59 73 78 75 73 75 77 73 62 55 48 40 30 23 19 18 18 19 14 9 5 3 1 2 1 5
116 133 122 91 125 139 130 81 91 41 29 25 3 358 360 23 58 73 84 80 79 73 68 72 66 57 53 48 40 33 25 17 16 18 17 16 15 13 12 10 18 26 25
162 174 160 134 116 128 140 85 75 35 35 357 1 32 23 22 40 40 98 103 88 72 68 73 74 61 51 42 31 27 21 17 15 15 15 15 17 17 17 15 22 30 36
205 193 190 186 157 106 114 107 45 47 38 26 28 17 10 14 6 11 41 79 87 100 97 84 81 60 48 34 28 20 17 14 12 12 13 14 18 19 19 21 26 29 43
176 212 201 221 198 197 174 150 33 50 40 37 47 34 5 5 11 17 14 26 155 128 103 85 55 34 33 30 22 24 21 18 12 13 15 12 15 17 20 22 26 36 32
219 246 205 208 203 211 201 206 263 71 57 54 46 50 47 34 13 1 3 346 135 158 135 48 30 4 9 23 24 25 20 16 17 18 14 12 11 11 16 19 24 29 29
216 182 219 219 240 247 219 209 229 155 88 62 58 75 54 50 40 42 14 351 18 109 16 14 353 345 344 7 14 19 13 11 10 9 7 8 8 5 10 14 19 24 26
231 225 236 262 240 243 222 219 224 229 240 51 57 56 54 49 41 40 35 28 16 352 329 341 345 356 340 350 2 7 5 5 6 7 2 357 2 2 1 8 13 18 22
258 243 245 267 221 232 229 228 226 232 254 274 273 328 11 20 24 27 25 22 20 14 359 1 316 301 332 341 354 353 354 354 350 350 360 6 7 6 357 1 6 9 13
262 258 238 250 229 237 237 233 225 234 250 263 265 276 296 313 330 338 351 7 3 9 50 34 28 48 309 338 345 344 343 344 349 335 343 348 356 355 355 353 0 1 6
238 247 236 229 248 251 251 245 253 239 252 261 256 264 274 282 288 294 304 318 335 338 327 339 333 331 336 335 335 337 339 342 340 329 330 332 339 345 350 339 348 352 358
248 241 269 239 248 264 263 258 236 240 253 251 252 263 274 272 273 275 274 283 295 303 306 305 307 309 317 320 325 331 337 336 327 322 324 328 334 340 347 345 331 338 346
254 253 263 280 289 270 264 249 245 249 246 248 252 267 276 278 269 265 264 267 275 286 293 298 303 308 311 312 315 316 316 319 309 312 321 324 328 335 344 355 330 324 333
263 262 267 272 273 276 253 262 256 254 252 251 247 260 272 283 269 257 264 271 281 286 291 293 296 301 307 312 315 316 315 309 302 305 310 314 322 331 341 349 350 340 326
268 260 263 269 265 261 274 272 263 258 263 264 263 266 271 268 272 276 273 276 283 288 296 301 305 309 313 320 322 327 328 322 310 308 314 319 325 331 330 330 320 312 313
263 264 263 269 269 270 272 271 270 261 264 266 271 274 277 268 270 270 273 281 284 284 295 300 302 308 313 315 321 325 323 324 323 322 327 321 322 321 323 325 318 306 294
261 265 263 264 266 267 272 273 267 261 264 262 266 272 268 268 271 271 274 275 278 284 288 296 298 304 306 309 319 322 321 321 317 317 319 316 320 319 323 321 313 319 286
259 261 265 264 267 267 263 260 266 263 266 265 268 271 271 265 264 267 277 280 280 285 286 290 293 297 301 306 312 314 316 319 318 317 318 315 319 319 326 317 304 318 299
263 270 269 261 259 263 263 261 262 265 270 273 277 276 273 268 270 274 273 275 273 274 277 285 287 291 297 301 304 304 306 305 304 309 313 310 321 321 325 322 300 306 306
304 293 299 311 319 278 261 262 262 265 269 270 272 274 275 275 271 274 274 275 274 274 275 278 280 283 286 291 295 299 299 299 300 304 310 309 321 324 322 321 318 287 287
281 291 276 303 305 283 278 261 259 256 260 266 266 269 268 271 274 273 274 276 276 279 276 276 279 282 284 285 288 292 295 299 300 302 304 307 313 315 315 314 320 312 281
257 254 258 280 281 284 269 277 265 255 258 262 275 285 293 291 282 280 279 280 278 279 279 280 279 278 280 281 282 283 289 293 297 299 303 305 310 313 311 310 311 311 305